RH
5 4 4 4 4 4 4 4 4 5 5 5 6 6 7 9 9 9 10 12 9 12 13 17 22 35 46 60 70 73 83 88 88 83 80 84 85 84 86 92 83 80 77 74 70
5 5 5 4 4 4 4 4 4 4 4 4 4 5 6 8 9 9 9 12 9 11 12 16 22 38 49 57 65 69 82 80 77 79 80 77 75 74 75 79 89 82 79 74 70
7 6 6 5 5 4 4 4 4 4 4 4 4 4 5 6 9 13 10 12 11 8 9 18 23 37 46 54 59 62 74 82 77 78 81 87 90 75 74 74 87 75 77 74 70
9 9 8 7 6 6 5 5 4 4 4 4 4 4 5 6 19 18 17 15 13 7 7 19 28 35 45 48 57 62 62 71 72 69 75 82 83 76 79 87 85 74 73 71 71
12 12 11 10 9 7 6 5 5 5 4 4 4 4 6 7 13 13 14 16 13 9 9 19 26 36 42 44 52 56 57 63 69 75 78 77 78 79 81 85 92 80 73 69 70
18 16 14 13 12 10 9 7 6 5 5 5 5 6 6 11 11 12 13 15 15 12 16 22 27 32 39 42 45 49 56 59 66 74 76 76 77 77 77 82 82 74 70 66 66
30 22 19 17 14 12 11 9 8 6 6 6 7 7 10 15 13 13 14 13 15 15 20 24 28 35 34 38 38 37 43 48 63 66 73 84 80 79 79 83 82 74 69 64 60
34 30 24 22 19 15 13 11 9 7 7 7 10 12 19 11 9 9 15 15 16 15 18 28 30 32 28 32 32 32 35 41 50 60 71 71 83 87 78 77 76 70 65 61 58
35 35 30 26 23 21 17 13 11 10 9 9 13 20 21 14 9 9 16 16 17 18 16 23 25 27 25 26 29 28 30 33 43 50 67 69 77 80 79 84 78 59 62 61 61
29 32 33 31 27 24 22 17 14 12 12 11 12 16 16 13 10 8 15 20 18 18 22 24 28 28 26 23 27 25 27 30 34 44 56 72 75 77 88 97 82 65 56 60 56
21 26 28 31 29 29 26 23 26 28 16 23 20 18 14 14 11 10 10 19 22 21 23 24 29 26 23 21 19 22 27 28 28 32 44 62 77 82 81 75 82 69 52 54 61
27 24 26 27 28 32 32 29 25 26 26 17 17 15 13 11 12 15 15 19 26 25 24 26 25 23 24 24 22 21 24 25 24 25 43 62 74 78 71 75 81 92 54 47 53
26 28 25 25 24 29 33 32 26 22 21 16 17 13 12 10 14 17 18 22 26 31 24 25 23 22 23 23 23 23 24 22 23 28 54 61 75 73 69 71 73 95 69 67 45
15 21 25 25 27 31 34 35 29 24 22 21 18 15 15 11 13 16 18 21 25 28 25 25 19 23 25 22 22 22 20 19 20 26 39 58 77 64 60 72 68 71 79 69 49
12 11 16 23 30 33 33 29 25 22 34 26 21 18 16 13 15 14 12 14 20 24 26 24 20 23 23 21 20 20 21 20 21 24 23 30 45 59 66 72 72 65 69 64 66
11 12 12 19 27 28 28 29 24 26 31 26 24 20 17 16 17 19 17 13 15 18 22 22 23 24 24 23 23 20 20 21 22 22 25 26 30 41 59 57 62 64 57 52 52
14 12 11 23 33 28 27 30 30 29 27 24 23 20 17 16 17 16 16 15 13 13 18 16 19 22 23 24 22 24 22 27 28 26 23 20 28 24 40 48 47 55 50 56 52
16 20 23 20 26 23 26 33 43 42 31 28 25 22 20 22 21 19 16 18 17 16 17 19 18 16 24 24 27 24 25 28 29 28 24 19 19 16 25 34 43 47 49 57 58
18 27 28 23 20 22 29 44 52 41 36 32 29 26 22 22 22 21 18 15 20 22 22 23 21 19 17 20 20 26 28 21 24 21 28 25 21 18 16 24 39 44 49 63 63
28 31 30 30 21 20 48 57 48 48 42 36 33 27 28 30 25 25 22 24 24 23 25 26 23 21 20 21 17 18 20 33 30 29 32 26 24 25 25 21 30 44 48 50 62
46 49 41 29 35 44 55 60 48 43 42 40 36 30 29 37 36 35 40 33 28 26 25 23 23 19 23 26 28 28 24 27 31 32 36 31 24 20 29 27 30 30 38 45 47
44 47 38 41 47 54 55 55 49 42 40 37 33 31 28 33 36 38 37 36 32 29 29 26 23 24 16 20 26 26 27 29 36 33 34 38 29 24 29 30 35 42 41 42 46
42 42 36 46 51 55 51 44 41 38 39 36 37 37 37 35 37 40 41 40 34 33 37 33 33 33 23 12 23 28 28 30 32 32 34 39 31 25 31 34 37 46 58 58 52
38 41 38 35 41 44 45 44 39 37 36 33 37 35 35 34 32 34 34 33 34 35 34 31 34 38 37 29 29 35 31 29 29 31 30 34 28 21 34 38 39 42 47 55 54
38 37 37 37 35 37 40 40 39 40 36 33 37 35 35 37 37 38 35 37 37 38 37 35 34 31 28 31 34 30 31 30 31 26 28 27 28 38 37 40 41 47 50 57 59
38 41 40 32 37 37 36 37 36 36 35 36 39 38 33 37 39 41 44 47 44 41 46 48 47 43 37 32 38 38 36 34 30 25 24 27 26 41 39 37 44 49 51 59 62
33 35 30 31 33 35 37 36 39 35 38 37 35 35 38 42 41 41 41 44 44 42 47 55 64 65 55 49 52 54 38 38 33 27 23 27 27 40 44 39 50 57 59 61 62